Childress, TX

5:24 AM CST on January 21, 2018 (GMT -0600)
Childress Municipal

Weather History for KCDS - March, 2013

Change the Weather History Date:

Saturday, March 16, 2013

  Actual Average Record
Temperature  
Mean Temperature 61 °F 54 °F  
Max Temperature 71 °F 67 °F 87 °F (1894)
Min Temperature 50 °F 40 °F 21 °F (1956)
Degree Days  
Heating Degree Days 4 12  
Month to date heating degree days 180 224  
Since 1 July heating degree days 2559 2784  
Cooling Degree Days 0 1  
Month to date cooling degree days 3 1  
Year to date cooling degree days 3 2  
Growing Degree Days 11 (Base 50)    
Moisture  
Dew Point 36 °F    
Average Humidity 40    
Maximum Humidity 59    
Minimum Humidity 20    
Precipitation  
Precipitation 0.00 in 0.05 in 1.43 in (1961)
Month to date precipitation T 0.74  
Year to date precipitation 3.34 2.52  
Snow  
Snow 0.00 in 0.00 in - ()
Month to date snowfall 0.0 0.3  
Since 1 July snowfall 5.5 6.7  
Snow Depth -    
Sea Level Pressure  
Sea Level Pressure 29.71 in    
Wind  
Wind Speed 15 mph (NNW)    
Max Wind Speed 24 mph    
Max Gust Speed 30 mph    
Visibility 10 miles    
Events      
T = Trace of Precipitation, MM = Missing Value Source: NWS Daily Summary

Daily Weather History Graph

Daily Weather History Graph

Search for Another Location

Airport or City:

Trip Planner

Search our weather history database for the weather conditions in past years. The results will help you decide how hot, cold, wet, or windy it might be!

Date:

Astronomy

Mar. 16, 2013 Rise Set
Actual Time 7:49 AM CDT 7:49 PM CDT
Civil Twilight 7:24 AM CDT 8:14 PM CDT
Nautical Twilight 6:55 AM CDT 8:44 PM CDT
Astronomical Twilight 6:26 AM CDT 9:13 PM CDT
Moon 10:33 AM CDT (3/16) No Moon Set
Length of Visible Light 12h 50m
Length of Day
11h 59m
Waxing Crescent, 23% of the Moon is Illuminated
Mar 16
Waxing Crescent
Mar 19
First Quarter
Mar 27
Full
Apr 2
Last Quarter
Apr 10
New

Hourly Weather History & Observations

Time (CDT) Temp. Dew Point Humidity Pressure Visibility Wind Dir Wind Speed Gust Speed Precip Events Conditions
12:53 AM 66.0 °F 24.1 °F 20% 29.69 in 10.0 mi SSW 17.3 mph - N/A   Clear
1:53 AM 66.9 °F 26.1 °F 21% 29.69 in 10.0 mi SW 19.6 mph - N/A   Clear
2:53 AM 61.0 °F 26.1 °F 26% 29.68 in 10.0 mi SW 11.5 mph - N/A   Clear
3:53 AM 61.0 °F 32.0 °F 34% 29.66 in 10.0 mi SW 11.5 mph - N/A   Clear
4:53 AM 55.9 °F 35.1 °F 45% 29.65 in 10.0 mi WSW 10.4 mph - N/A   Clear
5:53 AM 59.0 °F 37.0 °F 44% 29.64 in 10.0 mi SW 13.8 mph - N/A   Clear
6:53 AM 53.1 °F 37.0 °F 55% 29.65 in 10.0 mi WSW 9.2 mph - N/A   Clear
7:53 AM 52.0 °F 36.0 °F 54% 29.65 in 10.0 mi WSW 8.1 mph - N/A   Clear
8:53 AM 55.9 °F 35.1 °F 45% 29.66 in 10.0 mi WSW 9.2 mph - N/A   Clear
9:53 AM 63.0 °F 34.0 °F 34% 29.69 in 10.0 mi NNW 13.8 mph - N/A   Clear
10:53 AM 66.9 °F 28.0 °F 23% 29.71 in 10.0 mi North 18.4 mph - N/A   Clear
11:53 AM 66.0 °F 37.0 °F 34% 29.74 in 10.0 mi North 19.6 mph 25.3 mph N/A   Clear
12:53 PM 68.0 °F 41.0 °F 37% 29.74 in 10.0 mi North 17.3 mph - N/A   Clear
1:53 PM 70.0 °F 42.1 °F 36% 29.73 in 10.0 mi NNE 15.0 mph 24.2 mph N/A   Clear
2:53 PM 69.1 °F 39.9 °F 35% 29.72 in 10.0 mi NNE 18.4 mph 24.2 mph N/A   Clear
3:53 PM 70.0 °F 41.0 °F 35% 29.71 in 10.0 mi North 15.0 mph 23.0 mph N/A   Clear
4:53 PM 70.0 °F 41.0 °F 35% 29.71 in 10.0 mi NNE 13.8 mph 19.6 mph N/A   Clear
5:53 PM 70.0 °F 39.9 °F 33% 29.71 in 10.0 mi NNE 13.8 mph - N/A   Clear
6:53 PM 66.9 °F 39.9 °F 37% 29.73 in 10.0 mi North 15.0 mph - N/A   Clear
7:53 PM 63.0 °F 39.9 °F 43% 29.75 in 10.0 mi North 11.5 mph - N/A   Clear
8:53 PM 59.0 °F 41.0 °F 51% 29.75 in 10.0 mi NNE 12.7 mph - N/A   Clear
9:53 PM 55.9 °F 41.0 °F 57% 29.77 in 10.0 mi NE 15.0 mph 21.9 mph N/A   Clear
10:53 PM 54.0 °F 39.9 °F 59% 29.78 in 10.0 mi NNE 19.6 mph 25.3 mph N/A   Clear
11:53 PM 51.1 °F 37.0 °F 59% 29.81 in 10.0 mi NNE 17.3 mph 24.2 mph N/A   Clear